Weather reports worldwide

Advertisment
Salon, France (7648): temperature & dewpoint: 13.03.2019 10:00:00 - 19.03.2019 10:00:00 (CET)Salon, France (7648): temperature 5cm: 13.03.2019 10:00:00 - 19.03.2019 10:00:00 (CET)Salon, France (7648): wind speed & gusts: 13.03.2019 10:00:00 - 19.03.2019 10:00:00 (CET)Salon, France (7648): wind direction: 13.03.2019 10:00:00 - 19.03.2019 10:00:00 (CET)Salon, France (7648): reduced air pressure: 13.03.2019 10:00:00 - 19.03.2019 10:00:00 (CET)Salon, France (7648): visibility: 13.03.2019 10:00:00 - 19.03.2019 10:00:00 (CET)Salon, France (7648): precipitation: 13.03.2019 10:00:00 - 19.03.2019 10:00:00 (CET)
Date & Time tt [°C] td [°C] tt 5cm [°C] ff [km/h] ff [kn] fx [km/h] fx [kn] dd ppp [hPa] vv [km] rr [mm]
19.03.2019 10:00:00 - - - - - - - - - - -
19.03.2019 09:00:00 9,3 0,7 10,2 11 6 31 17 N 1021,4 56 0,0
19.03.2019 08:00:00 7,4 0,1 5,1 12 7 24 13 N 1020,9 56 0,0
19.03.2019 07:00:00 6,1 0,0 5,5 19 11 38 20 N 1020,2 60 0,0
19.03.2019 06:00:00 6,3 0,0 5,5 17 9 45 24 N 1019,5 60 0,0
19.03.2019 05:00:00 6,8 -0,2 6,1 28 15 46 25 NNW 1019,0 60 0,0
19.03.2019 04:00:00 6,8 -0,2 6,1 23 13 42 23 NNW 1018,6 60 0,0
19.03.2019 03:00:00 7,4 -0,3 6,8 28 15 42 23 NNW 1019,0 60 0,0
19.03.2019 02:00:00 8,1 -0,4 7,5 29 16 54 29 NNW 1019,4 60 0,0
19.03.2019 01:00:00 8,8 -1,1 8,0 33 18 54 29 NNW 1019,2 60 0,0
19.03.2019 00:00:00 9,0 -1,2 8,6 37 20 64 34 NNW 1019,4 60 0,0
18.03.2019 23:00:00 9,6 -2,4 9,0 34 18 59 32 NNW 1020,0 60 0,0
18.03.2019 22:00:00 9,9 -2,4 9,2 39 21 71 39 NNW 1019,5 60 0,0
18.03.2019 21:00:00 10,1 -1,9 9,1 41 22 68 37 NW 1019,5 60 0,0
18.03.2019 20:00:00 10,1 -2,3 9,5 35 19 63 34 NW 1018,9 60 0,0
18.03.2019 19:00:00 10,7 -2,7 10,0 33 18 61 33 NW 1019,4 60 0,0
18.03.2019 18:00:00 11,9 -2,0 12,2 38 21 74 40 NNW 1019,1 24 0,0
18.03.2019 17:00:00 12,8 -1,5 14,9 39 21 77 41 NNW 1018,6 21 0,0
18.03.2019 16:00:00 13,2 -0,8 15,5 51 28 82 45 NNW 1018,4 18 0,0
18.03.2019 15:00:00 13,7 -2,3 16,2 53 28 81 44 NW 1018,5 18 0,0
18.03.2019 14:00:00 13,4 -1,8 15,0 52 28 82 44 NNW 1018,6 19 0,0
18.03.2019 13:00:00 12,9 -2,2 13,7 44 24 80 43 NNW 1019,4 20 0,0
18.03.2019 12:00:00 11,9 -2,7 13,2 55 30 85 46 NNW 1020,1 22 0,0
18.03.2019 11:00:00 11,7 -1,5 11,3 51 27 76 41 NNW 1020,2 29 0,0
18.03.2019 10:00:00 10,6 -1,5 10,3 48 26 79 42 NNW 1020,1 35 0,0
18.03.2019 09:00:00 9,5 -1,9 9,3 48 26 71 38 NNW 1019,6 45 0,0
18.03.2019 08:00:00 8,3 -1,8 7,2 38 21 65 35 NNW 1019,0 52 0,0
18.03.2019 07:00:00 7,6 -1,6 5,2 32 17 51 28 NW 1018,6 60 0,0
18.03.2019 06:00:00 6,4 -2,2 4,0 11 6 20 11 WNW 1018,2 60 0,0
18.03.2019 05:00:00 6,2 -2,2 5,2 13 7 24 13 WNW 1018,1 60 0,0
18.03.2019 04:00:00 6,9 -2,6 5,9 10 6 34 18 W 1018,1 60 0,0
18.03.2019 03:00:00 8,0 -2,9 7,0 16 9 38 21 WNW 1018,2 60 0,0
18.03.2019 02:00:00 8,7 -2,9 7,9 25 13 59 32 NW 1018,3 60 0,0
18.03.2019 01:00:00 9,5 -3,1 8,7 31 17 61 33 NW 1018,6 60 0,0
18.03.2019 00:00:00 10,1 -3,3 9,3 31 17 59 32 NW 1017,9 60 0,0
17.03.2019 23:00:00 10,6 0,0 9,8 34 18 65 35 NW 1018,1 60 0,0
17.03.2019 22:00:00 11,5 2,0 10,9 27 15 60 32 NW 1017,4 60 0,0
17.03.2019 21:00:00 12,9 4,1 12,6 31 17 47 25 NNW 1016,3 60 0,0
17.03.2019 20:00:00 14,5 3,6 13,9 26 14 52 28 WNW 1015,0 60 0,0
17.03.2019 19:00:00 15,4 5,3 14,5 16 9 33 18 WNW 1014,2 54 0,0
17.03.2019 18:00:00 16,7 7,9 16,6 15 8 32 17 W 1013,6 38 0,0
17.03.2019 17:00:00 18,6 7,4 20,0 15 8 32 17 WNW 1013,2 55 0,0
17.03.2019 16:00:00 18,6 6,4 20,0 16 9 32 18 WNW 1013,3 40 0,0
17.03.2019 15:00:00 18,0 8,3 20,8 10 5 27 15 NW 1013,9 20 0,0
17.03.2019 14:00:00 17,4 8,0 20,6 9 5 20 11 WNW 1014,5 44 0,0
17.03.2019 13:00:00 15,6 8,1 16,0 3 1 21 11 N 1015,3 19 0,0
17.03.2019 12:00:00 14,7 8,0 15,7 13 7 18 10 NNW 1015,6 46 0,0
17.03.2019 11:00:00 14,2 7,7 15,9 14 7 19 10 NW 1016,0 45 0,0
17.03.2019 10:00:00 13,9 8,1 16,8 7 4 12 7 WNW 1016,1 48 0,0
17.03.2019 09:00:00 11,4 8,1 11,2 8 4 15 8 N 1015,5 36 0,0
17.03.2019 08:00:00 7,6 5,9 1,7 0 0 10 5 N 1015,4 15 0,0
17.03.2019 07:00:00 3,1 1,9 0,5 5 3 9 5 ENE 1014,8 16 0,0
17.03.2019 06:00:00 4,2 1,4 0,6 0 0 10 5 N 1014,7 26 0,0
17.03.2019 05:00:00 5,0 3,7 1,8 5 3 14 8 NE 1014,8 42 0,0
17.03.2019 04:00:00 6,8 3,4 3,3 2 1 16 9 E 1015,0 55 0,0
17.03.2019 03:00:00 7,0 4,3 4,9 13 7 21 11 ENE 1015,1 35 0,0
17.03.2019 02:00:00 6,4 4,1 2,5 14 7 20 11 ENE 1016,0 46 0,0
17.03.2019 01:00:00 5,9 3,4 2,7 3 2 11 6 NE 1016,9 36 0,0
17.03.2019 00:00:00 6,0 3,7 3,7 6 4 14 8 ENE 1017,1 38 0,0
16.03.2019 23:00:00 6,4 4,2 4,6 13 7 16 9 ENE 1017,2 40 0,0
16.03.2019 22:00:00 7,1 4,9 4,7 11 6 13 7 NE 1017,4 49 0,0
16.03.2019 21:00:00 10,9 5,0 7,2 3 1 10 6 S 1017,1 60 0,0
16.03.2019 20:00:00 12,7 5,4 9,4 8 4 11 6 S 1016,8 56 0,0
16.03.2019 19:00:00 14,7 5,2 12,9 6 3 16 9 SW 1016,3 60 0,0
16.03.2019 18:00:00 18,2 6,1 18,8 12 6 28 15 W 1016,2 60 0,0
16.03.2019 17:00:00 20,4 6,7 23,7 19 11 33 18 WSW 1015,8 60 0,0
16.03.2019 16:00:00 24,0 -2,6 28,4 14 7 31 17 WNW 1015,9 60 0,0
16.03.2019 15:00:00 23,8 -0,5 28,0 15 8 32 17 WNW 1016,4 60 0,0
16.03.2019 14:00:00 22,6 2,1 26,4 18 10 32 17 WNW 1016,8 60 0,0
16.03.2019 13:00:00 20,9 5,3 24,3 18 10 31 17 NW 1018,0 60 0,0
16.03.2019 12:00:00 19,3 5,0 21,7 21 11 42 23 NW 1018,6 59 0,0
16.03.2019 11:00:00 17,2 5,5 20,0 24 13 44 24 NW 1018,9 60 0,0
16.03.2019 10:00:00 15,6 5,2 18,0 21 12 40 22 WNW 1019,5 60 0,0
16.03.2019 09:00:00 14,3 5,1 15,0 18 10 41 22 NW 1019,8 60 0,0
16.03.2019 08:00:00 13,0 4,9 11,4 10 5 39 21 WNW 1019,7 58 0,0
16.03.2019 07:00:00 12,2 4,9 11,4 21 11 53 29 NW 1019,1 60 0,0
16.03.2019 06:00:00 12,2 4,7 11,2 29 15 51 28 NW 1018,8 60 0,0
16.03.2019 05:00:00 12,2 4,9 11,4 23 12 46 25 NW 1018,8 60 0,0
16.03.2019 04:00:00 12,5 5,2 11,6 26 14 47 26 NNW 1019,1 60 0,0
16.03.2019 03:00:00 13,2 5,4 12,4 31 17 49 26 NW 1019,5 60 0,0
16.03.2019 02:00:00 13,4 5,5 12,6 25 13 53 29 NW 1020,2 60 0,0
16.03.2019 01:00:00 13,7 5,6 12,5 19 11 39 21 NW 1020,7 60 0,0
16.03.2019 00:00:00 13,9 5,5 12,5 12 6 37 20 WNW 1021,2 60 0,0
15.03.2019 23:00:00 14,1 6,0 13,0 14 7 35 19 NW 1021,5 60 0,0
15.03.2019 22:00:00 14,5 6,3 13,6 23 12 38 20 NNW 1021,4 60 0,0
15.03.2019 21:00:00 14,7 6,0 13,5 19 10 30 16 NNW 1020,9 60 0,0
15.03.2019 20:00:00 15,4 5,9 14,4 22 12 40 21 NW 1020,4 60 0,0
15.03.2019 19:00:00 16,2 5,8 15,3 19 10 44 24 NNW 1020,3 60 0,0
15.03.2019 18:00:00 18,1 5,6 17,9 32 17 56 30 NNW 1019,7 60 0,0
15.03.2019 17:00:00 19,5 5,9 21,5 32 17 55 30 NNW 1019,5 46 0,0
15.03.2019 16:00:00 19,8 5,8 22,5 34 19 59 32 NNW 1019,3 43 0,0
15.03.2019 15:00:00 19,4 6,1 19,3 35 19 65 35 NNW 1019,3 60 0,0
15.03.2019 14:00:00 19,9 7,3 19,7 31 17 57 31 NW 1019,7 60 0,0
15.03.2019 13:00:00 18,0 7,1 19,0 23 12 56 30 NW 1020,5 60 0,0
15.03.2019 12:00:00 18,5 7,3 20,8 30 16 50 27 NW 1020,0 45 0,0
15.03.2019 11:00:00 17,6 7,0 18,8 31 17 55 30 NW 1020,2 51 0,0
15.03.2019 10:00:00 15,8 6,8 16,9 26 14 51 28 NW 1020,3 60 0,0
15.03.2019 09:00:00 13,9 6,3 13,1 23 12 39 21 NW 1019,9 60 0,0
15.03.2019 08:00:00 11,3 5,8 9,2 16 9 28 15 NW 1019,4 60 0,0
15.03.2019 07:00:00 10,0 5,0 8,8 13 7 30 16 NW 1019,1 60 0,0
15.03.2019 06:00:00 9,7 5,3 8,6 13 7 35 19 NW 1019,0 60 0,0
15.03.2019 05:00:00 10,0 5,2 8,9 25 13 40 21 NNW 1019,0 60 0,0
15.03.2019 04:00:00 10,2 5,4 9,4 25 13 41 22 NNW 1018,5 60 0,0
15.03.2019 03:00:00 10,3 5,1 9,4 20 11 39 21 NNW 1018,9 60 0,0
15.03.2019 02:00:00 11,0 4,4 10,1 25 13 35 19 NW 1019,6 60 0,0
15.03.2019 01:00:00 11,0 3,8 10,2 17 9 35 19 NW 1019,5 60 0,0
15.03.2019 00:00:00 11,6 3,9 10,9 18 10 28 15 WNW 1019,9 60 0,0
14.03.2019 23:00:00 12,1 3,8 11,5 16 8 33 18 WNW 1019,6 60 0,0
14.03.2019 22:00:00 12,3 3,8 11,5 16 9 33 18 WNW 1019,0 60 0,0
14.03.2019 21:00:00 12,3 3,5 11,6 18 10 37 20 WNW 1018,7 60 0,0
14.03.2019 20:00:00 13,3 3,1 12,7 23 13 54 29 WNW 1018,2 60 0,0
14.03.2019 19:00:00 13,6 2,8 13,1 28 15 58 31 WNW 1018,1 60 0,0
14.03.2019 18:00:00 14,2 2,1 14,1 28 15 54 29 WNW 1018,1 59 0,0
14.03.2019 17:00:00 14,8 2,3 15,7 27 15 49 26 WNW 1018,2 58 0,0
14.03.2019 16:00:00 14,8 1,3 15,6 15 8 34 19 NW 1018,6 60 0,0
14.03.2019 15:00:00 15,3 1,8 15,7 22 12 44 24 NW 1019,3 51 0,0
14.03.2019 14:00:00 15,7 0,7 17,6 32 18 48 26 NNW 1020,1 56 0,0
14.03.2019 13:00:00 14,8 2,0 14,8 26 14 48 26 NW 1021,3 54 0,0
14.03.2019 12:00:00 13,9 1,8 13,8 27 14 52 28 WNW 1022,1 45 0,0
14.03.2019 11:00:00 12,9 1,8 14,7 23 12 40 22 NW 1022,7 54 0,0
14.03.2019 10:00:00 11,3 1,5 9,8 26 14 41 22 NW 1023,1 20 0,0
14.03.2019 09:00:00 9,0 1,4 8,4 10 6 23 12 NW 1023,6 51 0,0
14.03.2019 08:00:00 7,4 1,0 4,0 6 3 16 9 WNW 1023,2 55 0,0
14.03.2019 07:00:00 5,8 -0,9 4,3 5 3 31 17 SW 1022,9 60 0,0
14.03.2019 06:00:00 7,3 0,0 5,3 18 10 35 19 NNW 1022,6 60 0,0
14.03.2019 05:00:00 6,7 -0,5 1,9 10 5 20 11 NW 1022,8 60 0,0
14.03.2019 04:00:00 4,1 -1,3 0,5 5 3 11 6 NW 1022,6 60 0,0
14.03.2019 03:00:00 5,0 -0,6 1,2 0 0 10 5 N 1023,1 60 0,0
14.03.2019 02:00:00 6,8 -0,7 5,1 9 5 22 12 NW 1022,7 60 0,0
14.03.2019 01:00:00 7,4 -1,1 5,5 11 6 18 10 WNW 1022,5 60 0,0
14.03.2019 00:00:00 7,7 -0,1 6,1 11 6 20 11 NNW 1022,0 60 0,0
13.03.2019 23:00:00 9,2 -0,2 7,9 11 6 29 16 NW 1021,6 60 0,0
13.03.2019 22:00:00 9,4 0,0 8,4 21 11 31 17 NNW 1021,1 60 0,0
13.03.2019 21:00:00 9,3 -0,1 8,5 22 12 36 19 NNW 1020,3 60 0,0
13.03.2019 20:00:00 9,9 -0,3 9,0 21 11 35 19 NNW 1019,6 60 0,0
13.03.2019 19:00:00 10,7 -0,2 9,9 20 11 53 29 NW 1019,2 60 0,0
13.03.2019 18:00:00 12,2 -0,7 11,9 31 17 57 31 NNW 1018,4 60 0,0
13.03.2019 17:00:00 14,4 -1,3 13,8 34 19 53 29 NNW 1017,7 60 0,0
13.03.2019 16:00:00 15,1 -1,1 13,8 24 13 51 27 NW 1017,4 60 0,0
13.03.2019 15:00:00 14,8 -1,3 16,3 29 16 55 30 NW 1017,4 30 0,0
13.03.2019 14:00:00 15,3 -0,9 16,1 26 14 59 32 NW 1017,9 28 0,0
13.03.2019 13:00:00 14,2 -0,7 16,8 36 19 - - NNW 1019,0 29 0,0
13.03.2019 12:00:00 13,1 -0,9 15,5 39 21 61 33 NNW 1019,6 29 0,0
13.03.2019 11:00:00 12,4 -1,5 14,4 39 21 64 34 NNW 1020,3 20 0,0
13.03.2019 10:00:00 11,3 -1,5 12,8 34 18 56 30 NW 1020,5 55 0,0

tt = temperature
td = dewpoint
tt 5cm = temperature 5cm
ff = wind speed
fx = gusts
dd = wind direction
ppp = reduced air pressure
vv = visibility
rr = precipitation

Next stations